Time,TemperatureF,DewpointF,PressureIn,WindDirection,WindDirectionDegrees,WindSpeedMPH,WindSpeedGustMPH,Humidity,HourlyPrecipIn,Conditions,Clouds,dailyrainin,SoftwareType,DateUTC
2013-01-12 00:03:00,49.0,47.0,29.85,SSW,210,1.0,7.0,92,0.00,,,0.18,,2013-01-12 05:03:00,
2013-01-12 00:12:00,49.0,47.0,29.85,SSW,210,1.0,7.0,92,0.00,,,0.18,,2013-01-12 05:12:00,
2013-01-12 00:22:00,49.0,46.0,29.85,SSW,196,1.0,9.0,91,0.00,,,0.18,,2013-01-12 05:22:00,
2013-01-12 00:32:00,49.0,47.0,29.84,South,186,1.0,6.0,92,0.00,,,0.18,,2013-01-12 05:32:00,
2013-01-12 00:42:00,49.0,47.0,29.84,South,186,1.0,6.0,92,0.00,,,0.18,,2013-01-12 05:42:00,
2013-01-12 00:53:00,49.0,46.0,29.84,South,180,3.0,7.0,91,0.00,,,0.18,,2013-01-12 05:53:00,
2013-01-12 01:02:00,49.0,46.0,29.84,SW,234,0.0,6.0,90,0.00,,,0.16,,2013-01-12 06:02:00,
2013-01-12 01:12:00,49.0,46.0,29.84,SW,234,0.0,6.0,90,0.00,,,0.16,,2013-01-12 06:12:00,
2013-01-12 01:22:00,49.0,46.0,29.84,WSW,242,2.0,7.0,91,0.00,,,0.16,,2013-01-12 06:22:00,
2013-01-12 01:33:00,50.0,47.0,29.84,SW,221,2.0,7.0,90,0.01,,,0.17,,2013-01-12 06:33:00,
2013-01-12 01:43:00,50.0,47.0,29.84,SW,221,2.0,7.0,90,0.01,,,0.17,,2013-01-12 06:43:00,
2013-01-12 01:53:00,51.0,48.0,29.84,SSE,164,3.0,8.0,88,0.01,,,0.17,,2013-01-12 06:53:00,
2013-01-12 02:02:00,51.0,48.0,29.84,SSE,164,3.0,8.0,88,0.01,,,0.17,,2013-01-12 07:02:00,
2013-01-12 02:12:00,51.0,48.0,29.84,SSE,164,3.0,8.0,88,0.01,,,0.17,,2013-01-12 07:12:00,
2013-01-12 02:22:00,51.0,48.0,29.84,SSE,164,3.0,8.0,88,0.01,,,0.17,,2013-01-12 07:22:00,
2013-01-12 02:32:00,51.0,47.0,29.84,South,190,3.0,9.0,87,0.00,,,0.16,,2013-01-12 07:32:00,
2013-01-12 02:42:00,51.0,47.0,29.84,South,190,3.0,9.0,87,0.00,,,0.16,,2013-01-12 07:42:00,
2013-01-12 02:53:00,51.0,47.0,29.85,SW,225,2.0,11.0,86,0.00,,,0.16,,2013-01-12 07:53:00,
2013-01-12 03:02:00,51.0,47.0,29.86,WNW,299,2.0,9.0,86,0.00,,,0.16,,2013-01-12 08:02:00,
2013-01-12 03:12:00,51.0,47.0,29.86,WNW,299,2.0,9.0,86,0.00,,,0.16,,2013-01-12 08:12:00,
2013-01-12 03:22:00,51.0,47.0,29.87,SW,226,2.0,7.0,87,0.00,,,0.16,,2013-01-12 08:22:00,
2013-01-12 03:32:00,50.0,46.0,29.87,WNW,293,1.0,6.0,87,0.00,,,0.16,,2013-01-12 08:32:00,
2013-01-12 03:42:00,50.0,46.0,29.87,WNW,293,1.0,6.0,87,0.00,,,0.16,,2013-01-12 08:42:00,
2013-01-12 03:52:00,50.0,46.0,29.87,SW,229,0.0,9.0,87,0.00,,,0.16,,2013-01-12 08:52:00,
2013-01-12 04:02:00,50.0,46.0,29.87,SSW,209,0.0,4.0,87,0.00,,,0.16,,2013-01-12 09:02:00,
2013-01-12 04:12:00,50.0,46.0,29.87,SSW,209,0.0,4.0,87,0.00,,,0.16,,2013-01-12 09:12:00,
2013-01-12 04:22:00,50.0,46.0,29.87,WSW,252,0.0,4.0,87,0.00,,,0.16,,2013-01-12 09:22:00,
2013-01-12 04:32:00,49.0,46.0,29.87,SSW,194,0.0,5.0,88,0.00,,,0.16,,2013-01-12 09:32:00,
2013-01-12 04:42:00,49.0,46.0,29.87,SSW,194,0.0,5.0,88,0.00,,,0.16,,2013-01-12 09:42:00,
2013-01-12 04:53:00,49.0,46.0,29.87,SSW,194,0.0,5.0,88,0.00,,,0.16,,2013-01-12 09:53:00,
2013-01-12 05:02:00,49.0,46.0,29.86,SSW,194,2.0,7.0,90,0.00,,,0.16,,2013-01-12 10:02:00,
2013-01-12 05:12:00,49.0,46.0,29.86,SSW,194,2.0,7.0,90,0.00,,,0.16,,2013-01-12 10:12:00,
2013-01-12 05:22:00,49.0,46.0,29.86,SW,219,1.0,6.0,90,0.00,,,0.15,,2013-01-12 10:22:00,
2013-01-12 05:32:00,49.0,46.0,29.85,South,185,0.0,5.0,90,0.00,,,0.15,,2013-01-12 10:32:00,
2013-01-12 05:43:00,49.0,46.0,29.85,South,185,0.0,5.0,90,0.00,,,0.15,,2013-01-12 10:43:00,
2013-01-12 05:52:00,49.0,46.0,29.85,SSW,213,2.0,6.0,90,0.00,,,0.15,,2013-01-12 10:52:00,
2013-01-12 06:02:00,48.0,45.0,29.85,SSW,208,0.0,4.0,90,0.00,,,0.15,,2013-01-12 11:02:00,
2013-01-12 06:12:00,48.0,45.0,29.85,SSW,208,0.0,4.0,90,0.00,,,0.15,,2013-01-12 11:12:00,
2013-01-12 06:22:00,48.0,45.0,29.86,South,188,1.0,5.0,91,0.00,,,0.14,,2013-01-12 11:22:00,
2013-01-12 06:33:00,48.0,46.0,29.86,South,182,2.0,5.0,92,0.00,,,0.14,,2013-01-12 11:33:00,
2013-01-12 06:42:00,48.0,46.0,29.86,South,182,2.0,5.0,92,0.00,,,0.14,,2013-01-12 11:42:00,
2013-01-12 06:53:00,48.0,46.0,29.86,SSW,207,2.0,6.0,92,0.00,,,0.14,,2013-01-12 11:53:00,
2013-01-12 07:03:00,48.0,46.0,29.87,SSW,209,1.0,5.0,92,0.00,,,0.14,,2013-01-12 12:03:00,
2013-01-12 07:12:00,48.0,46.0,29.87,SSW,209,1.0,5.0,92,0.00,,,0.14,,2013-01-12 12:12:00,
2013-01-12 07:22:00,48.0,46.0,29.88,SW,227,1.0,6.0,93,0.00,,,0.13,,2013-01-12 12:22:00,
2013-01-12 07:33:00,48.0,46.0,29.88,SW,223,1.0,6.0,93,0.00,,,0.13,,2013-01-12 12:33:00,
2013-01-12 07:43:00,48.0,46.0,29.88,SW,223,1.0,6.0,93,0.00,,,0.13,,2013-01-12 12:43:00,
2013-01-12 07:52:00,48.0,46.0,29.88,SW,218,2.0,6.0,93,0.00,,,0.13,,2013-01-12 12:52:00,
2013-01-12 08:02:00,48.0,46.0,29.89,SW,229,1.0,5.0,93,0.00,,,0.13,,2013-01-12 13:02:00,
2013-01-12 08:12:00,48.0,46.0,29.89,SW,229,1.0,5.0,93,0.00,,,0.13,,2013-01-12 13:12:00,
2013-01-12 08:23:00,49.0,47.0,29.90,NNW,337,1.0,7.0,94,0.00,,,0.12,,2013-01-12 13:23:00,
2013-01-12 08:33:00,50.0,48.0,29.91,SW,215,2.0,10.0,94,0.00,,,0.12,,2013-01-12 13:33:00,
2013-01-12 08:43:00,50.0,48.0,29.91,SW,215,2.0,10.0,94,0.00,,,0.12,,2013-01-12 13:43:00,
2013-01-12 08:53:00,50.0,48.0,29.91,SSW,211,1.0,6.0,93,0.00,,,0.12,,2013-01-12 13:53:00,
2013-01-12 09:02:00,50.0,48.0,29.91,SW,223,1.0,7.0,93,0.00,,,0.12,,2013-01-12 14:02:00,
2013-01-12 09:12:00,50.0,48.0,29.91,SW,223,1.0,7.0,93,0.00,,,0.12,,2013-01-12 14:12:00,
2013-01-12 09:22:00,51.0,49.0,29.92,WSW,255,3.0,7.0,93,0.01,,,0.12,,2013-01-12 14:22:00,
2013-01-12 09:33:00,51.0,49.0,29.92,SW,232,2.0,7.0,93,0.01,,,0.12,,2013-01-12 14:33:00,
2013-01-12 09:43:00,51.0,49.0,29.92,SW,232,2.0,7.0,93,0.01,,,0.12,,2013-01-12 14:43:00,
2013-01-12 09:53:00,51.0,49.0,29.92,WNW,282,2.0,8.0,92,0.01,,,0.12,,2013-01-12 14:53:00,
2013-01-12 10:03:00,51.0,49.0,29.93,SSW,207,2.0,6.0,92,0.01,,,0.12,,2013-01-12 15:03:00,
2013-01-12 10:13:00,51.0,49.0,29.93,SSW,207,2.0,6.0,92,0.01,,,0.12,,2013-01-12 15:13:00,
2013-01-12 10:23:00,52.0,50.0,29.94,West,259,3.0,8.0,93,0.00,,,0.11,,2013-01-12 15:23:00,
2013-01-12 10:33:00,52.0,50.0,29.94,SW,231,3.0,7.0,93,0.00,,,0.11,,2013-01-12 15:33:00,
2013-01-12 10:43:00,52.0,50.0,29.94,SW,231,3.0,7.0,93,0.00,,,0.11,,2013-01-12 15:43:00,
2013-01-12 10:53:00,52.0,50.0,29.94,WSW,240,1.0,6.0,93,0.00,,,0.11,,2013-01-12 15:53:00,
2013-01-12 11:03:00,53.0,51.0,29.93,South,182,1.0,6.0,93,0.00,,,0.11,,2013-01-12 16:03:00,
2013-01-12 11:13:00,53.0,51.0,29.93,South,182,1.0,6.0,93,0.00,,,0.11,,2013-01-12 16:13:00,
2013-01-12 11:23:00,54.0,52.0,29.93,SW,219,3.0,8.0,92,0.00,,,0.10,,2013-01-12 16:23:00,
2013-01-12 11:33:00,55.0,52.0,29.93,SW,227,3.0,9.0,91,0.00,,,0.10,,2013-01-12 16:33:00,
2013-01-12 11:43:00,55.0,52.0,29.93,SW,227,3.0,9.0,91,0.00,,,0.10,,2013-01-12 16:43:00,
2013-01-12 11:53:00,56.0,53.0,29.93,WSW,254,2.0,12.0,91,0.00,,,0.10,,2013-01-12 16:53:00,
2013-01-12 12:02:00,57.0,53.0,29.92,SW,227,3.0,8.0,88,0.00,,,0.10,,2013-01-12 17:02:00,
2013-01-12 12:12:00,57.0,53.0,29.92,SW,227,3.0,8.0,88,0.00,,,0.10,,2013-01-12 17:12:00,
2013-01-12 12:23:00,57.0,53.0,29.92,WNW,287,3.0,8.0,88,0.00,,,0.09,,2013-01-12 17:23:00,
2013-01-12 12:33:00,57.0,53.0,29.92,WNW,287,3.0,8.0,88,0.00,,,0.09,,2013-01-12 17:33:00,
2013-01-12 12:43:00,57.0,53.0,29.92,WNW,287,3.0,8.0,88,0.00,,,0.09,,2013-01-12 17:43:00,
2013-01-12 12:53:00,57.0,54.0,29.92,WSW,242,1.0,5.0,89,0.00,,,0.09,,2013-01-12 17:53:00,
2013-01-12 13:03:00,58.0,54.0,29.91,West,264,2.0,9.0,88,0.00,,,0.08,,2013-01-12 18:03:00,
2013-01-12 13:12:00,58.0,54.0,29.91,West,264,2.0,9.0,88,0.00,,,0.08,,2013-01-12 18:12:00,
2013-01-12 13:23:00,58.0,54.0,29.91,WSW,250,2.0,9.0,88,0.00,,,0.08,,2013-01-12 18:23:00,
2013-01-12 13:33:00,58.0,54.0,29.91,WSW,257,3.0,7.0,87,0.00,,,0.08,,2013-01-12 18:33:00,
2013-01-12 13:43:00,58.0,54.0,29.91,WSW,257,3.0,7.0,87,0.00,,,0.08,,2013-01-12 18:43:00,
2013-01-12 13:52:00,58.0,54.0,29.91,West,259,2.0,9.0,87,0.00,,,0.08,,2013-01-12 18:52:00,
2013-01-12 14:03:00,58.0,54.0,29.92,West,263,1.0,8.0,86,0.00,,,0.06,,2013-01-12 19:03:00,
2013-01-12 14:12:00,58.0,54.0,29.92,West,263,1.0,8.0,86,0.00,,,0.06,,2013-01-12 19:12:00,
2013-01-12 14:23:00,58.0,54.0,29.92,WNW,282,2.0,7.0,86,0.01,,,0.07,,2013-01-12 19:23:00,
2013-01-12 14:33:00,59.0,54.0,29.92,West,263,2.0,7.0,84,0.01,,,0.07,,2013-01-12 19:33:00,
2013-01-12 14:43:00,59.0,54.0,29.92,West,263,2.0,7.0,84,0.01,,,0.07,,2013-01-12 19:43:00,
2013-01-12 14:52:00,59.0,54.0,29.92,West,277,3.0,8.0,83,0.01,,,0.07,,2013-01-12 19:52:00,
2013-01-12 15:03:00,59.0,54.0,29.93,WNW,285,2.0,8.0,83,0.01,,,0.07,,2013-01-12 20:03:00,
2013-01-12 15:12:00,59.0,54.0,29.93,WNW,285,2.0,8.0,83,0.01,,,0.07,,2013-01-12 20:12:00,
2013-01-12 15:22:00,60.0,54.0,29.93,WSW,257,2.0,9.0,82,0.00,,,0.07,,2013-01-12 20:22:00,
2013-01-12 15:33:00,60.0,54.0,29.93,West,271,1.0,6.0,82,0.00,,,0.07,,2013-01-12 20:33:00,
2013-01-12 15:42:00,60.0,54.0,29.93,West,271,1.0,6.0,82,0.00,,,0.07,,2013-01-12 20:42:00,
2013-01-12 15:53:00,60.0,54.0,29.92,SW,217,2.0,6.0,82,0.00,,,0.07,,2013-01-12 20:53:00,
2013-01-12 16:03:00,59.0,54.0,29.93,SW,223,1.0,6.0,83,0.00,,,0.06,,2013-01-12 21:03:00,
2013-01-12 16:12:00,59.0,54.0,29.93,SW,223,1.0,6.0,83,0.00,,,0.06,,2013-01-12 21:12:00,
2013-01-12 16:22:00,58.0,54.0,29.92,SSW,200,0.0,4.0,85,0.00,,,0.06,,2013-01-12 21:22:00,
2013-01-12 16:33:00,58.0,54.0,29.92,South,191,1.0,5.0,86,0.00,,,0.06,,2013-01-12 21:33:00,
2013-01-12 16:43:00,58.0,54.0,29.92,South,191,1.0,5.0,86,0.00,,,0.06,,2013-01-12 21:43:00,
2013-01-12 16:52:00,58.0,54.0,29.92,South,188,0.0,3.0,86,0.00,,,0.06,,2013-01-12 21:52:00,
2013-01-12 17:03:00,57.0,53.0,29.92,South,189,0.0,2.0,87,0.00,,,0.06,,2013-01-12 22:03:00,
2013-01-12 17:12:00,57.0,53.0,29.92,South,189,0.0,2.0,87,0.00,,,0.06,,2013-01-12 22:12:00,
2013-01-12 17:23:00,57.0,53.0,29.92,South,189,0.0,1.0,88,0.00,,,0.06,,2013-01-12 22:23:00,
2013-01-12 17:33:00,57.0,53.0,29.92,South,189,0.0,1.0,88,0.00,,,0.06,,2013-01-12 22:33:00,
2013-01-12 17:43:00,57.0,53.0,29.92,South,189,0.0,1.0,88,0.00,,,0.06,,2013-01-12 22:43:00,
2013-01-12 17:52:00,56.0,53.0,29.90,NE,38,0.0,2.0,90,0.00,,,0.06,,2013-01-12 22:52:00,
2013-01-12 18:03:00,55.0,52.0,29.90,NE,38,0.0,0.0,90,0.00,,,0.05,,2013-01-12 23:03:00,
2013-01-12 18:13:00,55.0,52.0,29.90,NE,38,0.0,0.0,90,0.00,,,0.05,,2013-01-12 23:13:00,
2013-01-12 18:23:00,55.0,52.0,29.89,NE,38,0.0,0.0,91,0.00,,,0.05,,2013-01-12 23:23:00,
2013-01-12 18:33:00,54.0,52.0,29.91,NE,38,0.0,1.0,92,0.00,,,0.05,,2013-01-12 23:33:00,
2013-01-12 18:43:00,54.0,52.0,29.91,NE,38,0.0,1.0,92,0.00,,,0.05,,2013-01-12 23:43:00,
2013-01-12 18:53:00,53.0,51.0,29.90,NE,38,0.0,0.0,93,0.00,,,0.05,,2013-01-12 23:53:00,
2013-01-12 19:03:00,53.0,51.0,29.89,ENE,73,1.0,4.0,94,0.00,,,0.04,,2013-01-13 00:03:00,
2013-01-12 19:12:00,53.0,51.0,29.89,ENE,73,1.0,4.0,94,0.00,,,0.04,,2013-01-13 00:12:00,
2013-01-12 19:23:00,53.0,51.0,29.88,ENE,78,0.0,1.0,94,0.00,,,0.04,,2013-01-13 00:23:00,
2013-01-12 19:33:00,52.0,51.0,29.88,ENE,78,0.0,0.0,95,0.00,,,0.04,,2013-01-13 00:33:00,
2013-01-12 19:43:00,52.0,51.0,29.88,ENE,78,0.0,0.0,95,0.00,,,0.04,,2013-01-13 00:43:00,
2013-01-12 19:52:00,52.0,51.0,29.88,East,79,0.0,1.0,96,0.00,,,0.04,,2013-01-13 00:52:00,
2013-01-12 20:03:00,52.0,51.0,29.88,East,79,0.0,0.0,95,0.00,,,0.04,,2013-01-13 01:03:00,
2013-01-12 20:12:00,52.0,51.0,29.88,East,79,0.0,0.0,95,0.00,,,0.04,,2013-01-13 01:12:00,
2013-01-12 20:23:00,52.0,51.0,29.86,East,79,0.0,2.0,96,0.00,,,0.04,,2013-01-13 01:23:00,
2013-01-12 20:33:00,52.0,51.0,29.86,East,79,0.0,0.0,96,0.00,,,0.04,,2013-01-13 01:33:00,
2013-01-12 20:43:00,52.0,51.0,29.86,East,79,0.0,0.0,96,0.00,,,0.04,,2013-01-13 01:43:00,
2013-01-12 20:52:00,52.0,51.0,29.85,East,79,0.0,0.0,96,0.00,,,0.04,,2013-01-13 01:52:00,
2013-01-12 21:03:00,52.0,51.0,29.85,East,79,0.0,0.0,96,0.00,,,0.04,,2013-01-13 02:03:00,
2013-01-12 21:13:00,52.0,51.0,29.85,East,79,0.0,0.0,96,0.00,,,0.04,,2013-01-13 02:13:00,
2013-01-12 21:23:00,52.0,51.0,29.85,East,79,0.0,0.0,96,0.00,,,0.04,,2013-01-13 02:23:00,
2013-01-12 21:33:00,51.0,50.0,29.87,WNW,289,0.0,3.0,96,0.00,,,0.04,,2013-01-13 02:33:00,
2013-01-12 21:43:00,51.0,50.0,29.87,WNW,289,0.0,3.0,96,0.00,,,0.04,,2013-01-13 02:43:00,
2013-01-12 21:53:00,51.0,50.0,29.85,NW,309,0.0,4.0,97,0.00,,,0.04,,2013-01-13 02:53:00,
2013-01-12 22:03:00,51.0,50.0,29.84,ENE,62,2.0,4.0,97,0.00,,,0.04,,2013-01-13 03:03:00,
2013-01-12 22:12:00,51.0,50.0,29.84,ENE,62,2.0,4.0,97,0.00,,,0.04,,2013-01-13 03:12:00,
2013-01-12 22:22:00,52.0,51.0,29.83,NE,49,0.0,3.0,98,0.00,,,0.04,,2013-01-13 03:22:00,
2013-01-12 22:33:00,52.0,51.0,29.83,NE,49,0.0,3.0,98,0.00,,,0.04,,2013-01-13 03:33:00,
2013-01-12 22:43:00,52.0,51.0,29.83,NE,49,0.0,3.0,98,0.00,,,0.04,,2013-01-13 03:43:00,
2013-01-12 22:52:00,52.0,51.0,29.79,ENE,78,1.0,5.0,98,0.00,,,0.04,,2013-01-13 03:52:00,
2013-01-12 23:03:00,52.0,51.0,29.78,ENE,70,3.0,7.0,98,0.00,,,0.03,,2013-01-13 04:03:00,
2013-01-12 23:12:00,52.0,51.0,29.78,ENE,70,3.0,7.0,98,0.00,,,0.03,,2013-01-13 04:12:00,
2013-01-12 23:22:00,52.0,51.0,29.74,NE,46,4.0,7.0,98,0.00,,,0.03,,2013-01-13 04:22:00,
2013-01-12 23:33:00,52.0,51.0,29.74,ENE,71,6.0,11.0,98,0.00,,,0.03,,2013-01-13 04:33:00,
2013-01-12 23:43:00,52.0,51.0,29.74,ENE,71,6.0,11.0,98,0.00,,,0.03,,2013-01-13 04:43:00,
2013-01-12 23:52:00,52.0,51.0,29.74,ENE,58,2.0,8.0,98,0.00,,,0.03,,2013-01-13 04:52:00,